Other Surface Observations
Issued by NWS Charleston, SC

Home | Current Version | Previous Version | Text Only | Print | Product List | Glossary On
Versions: 1 2 3 4 5 6 7 8 9 10 11 12 13 14 15 16 17 18 19 20 21 22 23 24 25 26 27 28 29 30 31 32 33 34 35 36 37 38 39 40 41 42 43 44 45 46 47 48 49 50
000
SXUS52 KCHS 261610
OSOCHS

MARINE OBSERVATIONS
NATIONAL WEATHER SERVICE CHARLESTON SC
1100 AM EST FRI DEC 26 2014

...DOWNTOWN CHARLESTON AND HARBOR...

CITY           SKY/WX    TMP DP  RH WIND       PRES   REMARKS
WATERFRONT PRK   N/A     59 N/A N/A N6          N/A
FORT JOHNSON   NOT AVBL

...LAKE MOULTRIE...

CITY           SKY/WX    TMP DP  RH WIND       PRES   REMARKS
PINOPOLIS      NOT AVBL

...LAKE AND SUPPLEMENTAL COASTAL OBSERVATIONS...

STATION/POSITION TIME  TEMP    WIND        PRES    WAVE   SWELL
                       AIR SEA DIR/SP/G            HT/PER HT/PER/DIR
                 (UTC) (F)     (DEG/KT/KT) (MB)    (FT/S) (FT/S/D)
FORT PULASKI     1600   55 56   30/  6/  8 1027.7F
SAPELO ISLAND    1500   54     360/  8     1027.0R
UPR LAKE MARION  NOT AVBL
WINYAH BAY       1500   55      30/  4     1027.0S
LAKE MURRAY      1500   45     260/  2/  3 1028.1R
ACE BASIN NERRS  1500   50      30/  2     1027.0S


...C-MAN AND BUOY OBSERVATIONS...

STATION/POSITION TIME  TEMP    WIND        PRES    WAVE   SWELL
                       AIR SEA DIR/SP/G            HT/PER HT/PER/DIR
                 (UTC) (F)     (DEG/KT/KT) (MB)    (FT/S) (FT/S/D)
BUOY 41004       1600   63 72   30/ 12/ 14 1026.1F   2/ 8   2/ 8
BUOY 41008       1600   56 59   20/ 14/ 16 1026.2F   2/ 8   2/130/ 8
FOLLY BEACH CMAN 1500   53      10/  7/  8 1027.6F
CAPERS NS BUOY   NOT AVBL
FRIPP NS BUOY    NOT AVBL
5E ST. MARYS GA  1600      62                N/A     2/10


STATION/POSITION TIME  TEMP    WIND        PRES    WAVE   SWELL
                       AIR SEA DIR/SP/G            HT/PER HT/PER/DIR
                 (UTC) (F)     (DEG/KT/KT) (MB)    (FT/S) (FT/S/D)
FRYING PAN BUOY  1600   58 70   20/ 12/ 14 1027.8R   2/ 7   2/140/ 7
BUOY 41025       1600   58                 1027.4R   3/ 8
CAPE LOOKOUT NC  1500   53     350/  5/  6 1027.7R
BUOY 41002       1455   68 73   60/ 10/ 12 1025.7    4/ 6   3/300/ 6
BUOY 41010       1600   72 76   60/  6/  8 1024.3F   3/ 6   3/310/ 6
ST AUGUSTINE FL  1600   60     360/ 11/ 12 1025.8F

$$



USA.gov is the U.S. government's official web portal to all federal, state and local government web resources and services.